| time (UTC) | temp F | wind direction | speed knots | gust knots | rain 1hr in | rain 24hr in | rain mn in | humidity % | barometer mb |
| 20260507104008 | 0 | 0.0 | 0.0 | 0.00 | 0.00 | 0.00 | 1017.5 | ||
| 20260507102504 | 0 | 0.0 | 0.0 | 0.00 | 0.00 | 0.00 | 1017.4 | ||
| 20260507100958 | 0 | 0.0 | 0.0 | 0.00 | 0.00 | 0.00 | 1017.7 | ||
| 20260507095457 | 0 | 0.0 | 0.0 | 0.00 | 0.00 | 0.00 | 1017.7 | ||
| 20260507093952 | 40 | 111 | 1.7 | 2.6 | 0.00 | 0.00 | 0.00 | 94 | 1017.6 |
| 20260507092450 | 40 | 111 | 1.7 | 2.6 | 0.00 | 0.00 | 0.00 | 94 | 1017.8 |
| 20260507090945 | 40 | 111 | 1.7 | 2.6 | 0.00 | 0.00 | 0.00 | 94 | 1017.8 |
| 20260507085441 | 40 | 111 | 1.7 | 2.6 | 0.00 | 0.00 | 0.00 | 94 | 1017.7 |
| 20260507083938 | 0 | 0.0 | 0.0 | 0.00 | 0.00 | 0.00 | 1017.9 | ||
| 20260507082438 | 0 | 0.0 | 0.0 | 0.00 | 0.00 | 0.00 | 1017.9 | ||
| 20260507080935 | 41 | 119 | 1.7 | 1.7 | 0.00 | 0.00 | 0.00 | 91 | 1017.8 |
| 20260507075434 | 41 | 119 | 1.7 | 1.7 | 0.00 | 0.00 | 0.00 | 91 | 1017.8 |
| 20260507073931 | 41 | 119 | 1.7 | 1.7 | 0.00 | 0.00 | 0.00 | 91 | 1017.4 |
| 20260507072428 | 41 | 119 | 1.7 | 1.7 | 0.00 | 0.00 | 0.00 | 91 | 1017.9 |
| 20260507070924 | 41 | 112 | 1.7 | 1.7 | 0.00 | 0.00 | 0.00 | 91 | 1018.0 |
| 20260507065421 | 42 | 113 | 1.7 | 2.6 | 0.00 | 0.00 | 0.00 | 90 | 1018.0 |
| 20260507063920 | 42 | 112 | 1.7 | 3.5 | 0.00 | 0.00 | 0.00 | 90 | 1018.1 |
| 20260507062416 | 42 | 110 | 1.7 | 1.7 | 0.00 | 0.00 | 0.00 | 88 | 1018.2 |
| 20260507060916 | 44 | 94 | 1.7 | 2.6 | 0.00 | 0.00 | 0.00 | 84 | 1018.1 |
| 20260507055416 | 44 | 94 | 1.7 | 2.6 | 0.00 | 0.00 | 0.00 | 84 | 1018.2 |
| 20260507053913 | 44 | 94 | 1.7 | 2.6 | 0.00 | 0.00 | 0.00 | 84 | 1018.4 |
| 20260507052411 | 45 | 118 | 0.9 | 1.7 | 0.00 | 0.00 | 0.00 | 81 | 1018.1 |
| 20260507050909 | 45 | 118 | 0.9 | 1.7 | 0.00 | 0.00 | 0.00 | 81 | 1018.1 |
| 20260507045404 | 45 | 118 | 0.9 | 1.7 | 0.00 | 0.00 | 0.00 | 81 | 1018.2 |
| 20260507043900 | 45 | 118 | 0.9 | 1.7 | 0.00 | 0.00 | 0.00 | 81 | 1018.0 |
| 20260507042355 | 47 | 114 | 0.9 | 1.7 | 0.00 | 0.00 | 0.00 | 75 | 1018.0 |
| 20260507040852 | 47 | 114 | 0.9 | 1.7 | 0.00 | 0.00 | 0.00 | 75 | 1018.1 |
| 20260507035350 | 47 | 114 | 0.9 | 1.7 | 0.00 | 0.00 | 0.00 | 75 | 1017.9 |
| 20260507033848 | 47 | 114 | 0.9 | 1.7 | 0.00 | 0.00 | 0.00 | 75 | 1017.8 |
| 20260507032344 | 48 | 95 | 1.7 | 1.7 | 0.00 | 0.00 | 0.00 | 71 | 1017.7 |
| 20260507030840 | 48 | 107 | 1.7 | 1.7 | 0.00 | 0.00 | 0.00 | 72 | 1017.6 |
| 20260507025337 | 49 | 101 | 1.7 | 2.6 | 0.00 | 0.00 | 0.00 | 71 | 1017.7 |
| 20260507023833 | 50 | 97 | 1.7 | 1.7 | 0.00 | 0.00 | 0.00 | 67 | 1017.5 |
| 20260507022329 | 50 | 97 | 1.7 | 1.7 | 0.00 | 0.00 | 0.00 | 67 | 1017.3 |
| 20260507020825 | 52 | 89 | 0.9 | 1.7 | 0.00 | 0.00 | 0.00 | 64 | 1017.1 |
| 20260507015322 | 52 | 89 | 0.9 | 1.7 | 0.00 | 0.00 | 0.00 | 64 | 1017.2 |
| 20260507013817 | 53 | 99 | 1.7 | 1.7 | 0.00 | 0.00 | 0.00 | 63 | 1017.0 |
| 20260507012314 | 54 | 104 | 1.7 | 1.7 | 0.00 | 0.00 | 0.00 | 59 | 1016.6 |
| 20260507010813 | 57 | 108 | 0.9 | 1.7 | 0.00 | 0.00 | 0.00 | 55 | 1016.4 |
| 20260507005309 | 59 | 105 | 1.7 | 1.7 | 0.00 | 0.00 | 0.00 | 53 | 1016.4 |
| 20260507003806 | 61 | 82 | 1.7 | 1.7 | 0.00 | 0.00 | 0.00 | 45 | 1016.4 |
| 20260507002306 | 64 | 55 | 3.5 | 3.5 | 0.00 | 0.00 | 0.00 | 42 | 1016.4 |
| 20260507000801 | 64 | 55 | 3.5 | 3.5 | 0.00 | 0.00 | 0.00 | 42 | 1016.1 |
| 20260506235256 | 63 | 57 | 2.6 | 3.5 | 0.00 | 0.00 | 0.00 | 41 | 1015.9 |
| 20260506233754 | 66 | 123 | 1.7 | 1.7 | 0.00 | 0.00 | 0.00 | 41 | 1015.6 |
| 20260506232253 | 67 | 65 | 1.7 | 5.2 | 0.00 | 0.00 | 0.00 | 39 | 1015.6 |
| 20260506230751 | 67 | 69 | 1.7 | 3.5 | 0.00 | 0.00 | 0.00 | 38 | 1015.6 |
| 20260506225248 | 67 | 349 | 2.6 | 3.5 | 0.00 | 0.00 | 0.00 | 38 | 1015.4 |
| 20260506223744 | 68 | 81 | 1.7 | 2.6 | 0.00 | 0.00 | 0.00 | 36 | 1015.4 |
| 20260506222238 | 67 | 4 | 1.7 | 2.6 | 0.00 | 0.00 | 0.00 | 40 | 1015.6 |
| 20260506220737 | 68 | 4 | 2.6 | 4.3 | 0.00 | 0.00 | 0.00 | 37 | 1015.6 |
| 20260506215236 | 69 | 351 | 3.5 | 6.1 | 0.00 | 0.00 | 0.00 | 37 | 1015.7 |
| 20260506213734 | 69 | 358 | 2.6 | 5.2 | 0.00 | 0.00 | 0.00 | 38 | 1015.5 |
| 20260506212229 | 70 | 9 | 5.2 | 5.2 | 0.00 | 0.00 | 0.00 | 36 | 1015.7 |
| 20260506210725 | 69 | 139 | 1.7 | 2.6 | 0.00 | 0.00 | 0.00 | 40 | 1015.6 |
| 20260506205219 | 68 | 112 | 7.0 | 7.0 | 0.00 | 0.00 | 0.00 | 37 | 1015.8 |
| 20260506203718 | 68 | 13 | 3.5 | 3.5 | 0.00 | 0.00 | 0.00 | 35 | 1016.1 |
| 20260506202214 | 68 | 93 | 4.3 | 5.2 | 0.00 | 0.00 | 0.00 | 37 | 1016.0 |
| 20260506200711 | 66 | 59 | 1.7 | 2.6 | 0.00 | 0.00 | 0.00 | 42 | 1016.0 |
| 20260506195206 | 67 | 131 | 1.7 | 4.3 | 0.00 | 0.00 | 0.00 | 44 | 1016.2 |
| 20260506193704 | 66 | 268 | 3.5 | 4.3 | 0.00 | 0.00 | 0.00 | 44 | 1016.7 |
| 20260506192159 | 67 | 141 | 1.7 | 3.5 | 0.00 | 0.00 | 0.00 | 41 | 1016.8 |
| 20260506190656 | 64 | 100 | 1.7 | 2.6 | 0.00 | 0.00 | 0.00 | 43 | 1016.8 |
| 20260506185152 | 66 | 74 | 1.7 | 2.6 | 0.00 | 0.00 | 0.00 | 44 | 1016.8 |
| 20260506183649 | 65 | 21 | 2.6 | 3.5 | 0.00 | 0.00 | 0.00 | 38 | 1017.3 |
| 20260506182145 | 65 | 85 | 3.5 | 6.1 | 0.00 | 0.00 | 0.00 | 39 | 1017.4 |
| 20260506180643 | 64 | 30 | 1.7 | 6.1 | 0.00 | 0.00 | 0.00 | 43 | 1017.8 |
| 20260506175138 | 63 | 2 | 2.6 | 4.3 | 0.00 | 0.00 | 0.00 | 41 | 1017.9 |
| 20260506173637 | 61 | 66 | 4.3 | 5.2 | 0.00 | 0.00 | 0.00 | 44 | 1018.0 |
| 20260506172133 | 63 | 92 | 1.7 | 2.6 | 0.00 | 0.00 | 0.00 | 44 | 1017.9 |
| 20260506170631 | 62 | 30 | 3.5 | 3.5 | 0.00 | 0.00 | 0.00 | 45 | 1018.3 |
| 20260506165127 | 61 | 37 | 2.6 | 3.5 | 0.00 | 0.00 | 0.00 | 47 | 1018.1 |
| 20260506163623 | 61 | 58 | 2.6 | 4.3 | 0.00 | 0.00 | 0.00 | 52 | 1017.7 |
| 20260506162122 | 61 | 309 | 2.6 | 3.5 | 0.00 | 0.00 | 0.00 | 48 | 1017.1 |
| 20260506160619 | 60 | 49 | 3.5 | 4.3 | 0.00 | 0.00 | 0.00 | 48 | 1017.0 |
| 20260506155116 | 59 | 61 | 4.3 | 5.2 | 0.00 | 0.00 | 0.00 | 52 | 1016.8 |
| 20260506152553 | 60 | 95 | 1.7 | 7.0 | 0.00 | 0.00 | 0.00 | 50 | 1017.0 |
| 20260506151052 | 59 | 55 | 2.6 | 3.5 | 0.00 | 0.00 | 0.00 | 58 | 1016.9 |
| 20260506145547 | 58 | 103 | 2.6 | 4.3 | 0.00 | 0.00 | 0.00 | 62 | 1016.9 |
| 20260506144044 | 56 | 108 | 2.6 | 3.5 | 0.00 | 0.00 | 0.00 | 67 | 1016.5 |
| 20260506142544 | 53 | 115 | 0.0 | 3.5 | 0.00 | 0.00 | 0.00 | 72 | 1016.7 |
| 20260506141043 | 53 | 48 | 0.9 | 5.2 | 0.00 | 0.00 | 0.00 | 73 | 1017.0 |
| 20260506135540 | 50 | 95 | 0.9 | 2.6 | 0.00 | 0.00 | 0.00 | 78 | 1017.1 |
| 20260506134040 | 49 | 68 | 0.9 | 1.7 | 0.00 | 0.00 | 0.00 | 82 | 1016.9 |
| 20260506132538 | 48 | 154 | 0.9 | 2.6 | 0.00 | 0.00 | 0.00 | 81 | 1016.7 |
| 20260506131034 | 48 | 24 | 2.6 | 5.2 | 0.00 | 0.00 | 0.00 | 81 | 1016.8 |
| 20260506125533 | 48 | 70 | 1.7 | 1.7 | 0.00 | 0.00 | 0.00 | 86 | 1016.6 |
| 20260506124031 | 47 | 101 | 1.7 | 3.5 | 0.00 | 0.00 | 0.00 | 87 | 1016.5 |
| 20260506122529 | 47 | 66 | 1.7 | 2.6 | 0.00 | 0.00 | 0.00 | 88 | 1016.8 |
| 20260506121026 | 47 | 68 | 2.6 | 3.5 | 0.00 | 0.00 | 0.00 | 89 | 1017.1 |
| 20260506115525 | 47 | 61 | 1.7 | 7.0 | 0.00 | 0.00 | 0.00 | 91 | 1016.7 |
| 20260506114025 | 46 | 57 | 1.7 | 2.6 | 0.00 | 0.00 | 0.00 | 91 | 1016.4 |
| 20260506112522 | 46 | 46 | 1.7 | 2.6 | 0.00 | 0.00 | 0.00 | 91 | 1016.2 |
| 20260506111020 | 46 | 19 | 2.6 | 3.5 | 0.00 | 0.00 | 0.00 | 92 | 1016.0 |
| 20260506105516 | 46 | 96 | 1.7 | 3.5 | 0.00 | 0.00 | 0.00 | 92 | 1015.8 |